Hourly Data Report for June 07, 2021

TOBERMORY RCS
ONTARIO
Current Station Operator: ECCC - MSC

45°14'00.000" N
81°38'00.000" W
213.50 m
6128330
71767
TTR

Download Data

Hourly Data (June 2021)
Hourly Data Report for June 7, 2021
TIME
LST
Temp Definition
°C
Dew Point Definition
°C
Rel Hum Definition
%
Precip. Amount Definition
mm

Wind Dir Definition
10's deg

Wind Spd Definition
km/h
Visibility Definition
km
Stn Press Definition
kPa
Hmdx Definition


Wind Chill Definition


Weather Definition


00:00 16.1 11.3 73 0.0 22 13   98.75     LegendNANA
01:00 16.1 11.6 75 0.0 22 11   98.77     LegendNANA
02:00 16.0 11.8 76 0.0 21 12   98.77     LegendNANA
03:00 16.0 12.2 78 0.0 19 8   98.75     LegendNANA
04:00 16.3 12.7 79 0.0 18 8   98.77     LegendNANA
05:00 15.2 12.5 84 0.0 18 8   98.78     LegendNANA
06:00 17.0 13.6 80 0.0 20 12   98.83     LegendNANA
07:00 17.5 13.9 80 0.0 21 12   98.87     LegendNANA
08:00 18.2 14.7 80 0.0 21 10   98.87     LegendNANA
09:00 19.0 15.2 79 0.0 19 12   98.88     LegendNANA
10:00 20.9 16.3 75 0.0 20 12   98.87 26   LegendNANA
11:00 19.4 15.8 80 0.0 21 13   98.90     LegendNANA
12:00 18.8 15.9 83 0.0 21 11   98.91     LegendNANA
13:00 21.6 17.5 77 0.0 20 13   98.91 27   LegendNANA
14:00 19.3 16.2 83 0.0 21 12   98.93     LegendNANA
15:00 18.4 15.6 84 0.0 22 12   98.92     LegendNANA
16:00 18.4 15.7 84 0.0 21 12   98.86     LegendNANA
17:00 18.2 15.6 85 0.0 21 11   98.87     LegendNANA
18:00 18.7 16.3 86 0.0 21 10   98.87     LegendNANA
19:00 18.5 16.2 86 0.0 21 8   98.84     LegendNANA
20:00 18.4 16.7 90 0.0 20 9   98.87     LegendNANA
21:00 17.7 16.4 93 0.0 22 10   98.93     LegendNANA
22:00 17.7 16.8 94 0.0 21 8   98.97     LegendNANA
23:00 17.0 16.0 94 0.0 20 8   98.98     LegendNANA

Notes on Data Quality.

Legend

  • E = Estimated
  • M = Missing
  • NA = Not Available*
  • [empty] = Indicates an unobserved value
Date modified: